User: anonymous   Login
Location: Haliburton Scout Reserve
(45.0900°N, 78.3200°W)
Time: 12:59:44
(UTC-04:00)
Language:

YUBILEINY - Orbit

View from above orbital plane
View from above orbital plane
View from above satellite
View from above satellite

Ground track
Ground track

The orbit data is extracted from the following two-line orbital elements,

1 32953U 08025A   24150.48074458  .00000053  00000-0  30703-3 0  9993
2 32953  82.5014 101.1207 0019926 142.1759 218.0725 12.43141517726809
Epoch (UTC): 29 May 2024 11:32:16
Eccentricity: 0.0019926
inclination: 82.5014°
perigee height: 1477 km
apogee height: 1509 km
right ascension of ascending node: 101.1207°
argument of perigee: 142.1759°
revolutions per day: 12.43141517
mean anomaly at epoch: 218.0725°
orbit number at epoch: 72680

The dashed part of the orbit path shows where the satellite is in the earth's shadow,  

DLR